Location: Alvediston
(51.0078°N, 2.0364°W)
Time: 06:02:12
(UTC+00:00)

NOSS 3-2 (C) - Pass Details

Date: 27 February 2020
Orbit: 813 x 1399 km, 63.4° (Epoch: 06 March)

Event Time Altitude Azimuth Distance (km) Brightness Sun altitude
Rises 20:49:56 0° 315° (NW) 3,931 7.7 -29.3°
Reaches altitude 10° 20:52:29 10° 313° (NW) 3,049 6.9 -29.6°
Maximum altitude 20:59:51 70° 232° (SW) 1,333 4.1 -30.7°
Enters shadow 21:01:19 59° 179° (S) 1,462 4.1 -30.9°
